Location: Wheeling
(40.0640°N, 80.7210°W)
Time: 19:38:27
(UTC-05:00)

KAITUO 1B - Pass Details

Date: 01 November 2021
Orbit: 489 x 506 km, 97.4° (Epoch: 07 December)

Event Time Altitude Azimuth Distance (km) Brightness Sun altitude
Rises 07:18:44 0° 22° (NNE) 2,600 ? -7.0°
Reaches altitude 10° 07:21:00 10° 34° (NNE) 1,715 ? -6.6°
Maximum altitude 07:24:18 30° 97° (E) 914 ? -6.0°
Drops below altitude 10° 07:27:36 10° 160° (SSE) 1,710 ? -5.4°
Sets 07:29:51 0° 171° (S) 2,592 ? -5.0°
